Location: Unspecified
(0.0000°N, 0.0000°E)
Time: 17:33:53
(UTC+00:00)

ARIANE 2 DEB - Pass Details

Date: 20 December 2025
Orbit: 910 x 35590 km, 6.7° (Epoch: 29 August)

Event Time Altitude Azimuth Distance (km) Brightness Sun altitude
Rises 13:31:13 0° 273° (W) 7,423 ? 57.4°
Reaches altitude 10° 13:34:12 10° 273° (W) 7,253 ? 56.9°
Maximum altitude 14:37:14 84° 188° (S) 17,568 ? 44.8°
Enters shadow 23:17:31 85° 247° (WSW) 7,532 ? -64.6°
